Time,TemperatureF,DewpointF,PressureIn,WindDirection,WindDirectionDegrees,WindSpeedMPH,WindSpeedGustMPH,Humidity,HourlyPrecipIn,Conditions,Clouds,dailyrainin,SoftwareType,DateUTC
2013-05-21 00:01:00,60.8,59.9,29.98,WNW,294,0.0,0.0,97,0.00,,,0.00,meteohub,2013-05-21 04:01:00,
2013-05-21 00:02:00,60.8,59.9,29.98,WNW,294,0.0,0.0,97,0.00,,,0.00,meteohub,2013-05-21 04:02:00,
2013-05-21 00:03:00,60.6,59.7,29.98,WNW,294,0.0,0.0,97,0.00,,,0.00,meteohub,2013-05-21 04:03:00,
2013-05-21 00:04:00,60.6,59.7,29.99,WNW,294,0.0,0.0,97,0.00,,,0.00,meteohub,2013-05-21 04:04:00,
2013-05-21 00:09:00,60.6,59.7,29.98,WNW,294,0.0,0.0,97,0.00,,,0.00,meteohub,2013-05-21 04:09:00,
2013-05-21 00:14:00,60.4,59.5,29.99,WNW,294,0.0,0.0,97,0.00,,,0.00,meteohub,2013-05-21 04:14:00,
2013-05-21 00:20:00,60.4,59.5,29.99,WNW,294,0.0,0.0,97,0.00,,,0.00,meteohub,2013-05-21 04:20:00,
2013-05-21 00:25:00,60.4,59.5,29.98,WNW,294,0.0,0.0,97,0.00,,,0.00,meteohub,2013-05-21 04:25:00,
2013-05-21 00:30:00,60.4,59.5,29.98,WNW,294,0.0,0.0,97,0.00,,,0.00,meteohub,2013-05-21 04:30:00,
2013-05-21 00:35:00,60.3,59.4,29.98,WNW,294,0.0,0.0,97,0.00,,,0.00,meteohub,2013-05-21 04:35:00,
2013-05-21 00:40:00,60.3,59.4,29.98,WNW,294,0.0,0.0,97,0.00,,,0.00,meteohub,2013-05-21 04:40:00,
2013-05-21 00:45:00,60.3,59.4,29.97,WNW,294,0.0,0.0,97,0.00,,,0.00,meteohub,2013-05-21 04:45:00,
2013-05-21 00:50:00,60.3,59.4,29.97,WNW,294,0.0,0.0,97,0.00,,,0.00,meteohub,2013-05-21 04:50:00,
2013-05-21 00:55:00,60.3,59.4,29.97,WNW,294,0.0,0.0,97,0.00,,,0.00,meteohub,2013-05-21 04:55:00,
2013-05-21 01:01:00,60.3,59.4,29.97,WNW,294,0.0,0.0,97,0.00,,,0.00,meteohub,2013-05-21 05:01:00,
2013-05-21 01:06:00,60.1,59.2,29.97,WNW,294,0.0,0.0,97,0.00,,,0.00,meteohub,2013-05-21 05:06:00,
2013-05-21 01:11:00,60.1,59.2,29.97,WNW,294,0.0,0.0,97,0.00,,,0.00,meteohub,2013-05-21 05:11:00,
2013-05-21 01:16:00,59.9,59.0,29.97,WNW,294,0.0,0.0,97,0.00,,,0.00,meteohub,2013-05-21 05:16:00,
2013-05-21 01:21:00,59.7,58.8,29.97,WNW,294,0.0,0.0,97,0.00,,,0.00,meteohub,2013-05-21 05:21:00,
2013-05-21 01:26:00,59.5,58.6,29.97,WNW,294,0.0,0.0,97,0.00,,,0.00,meteohub,2013-05-21 05:26:00,
2013-05-21 01:31:00,59.5,58.6,29.97,WNW,294,0.0,0.0,97,0.00,,,0.00,meteohub,2013-05-21 05:31:00,
2013-05-21 01:37:00,59.4,58.5,29.96,WNW,294,0.0,0.0,97,0.00,,,0.00,meteohub,2013-05-21 05:37:00,
2013-05-21 01:42:00,59.2,58.3,29.96,WNW,294,0.0,0.0,97,0.00,,,0.00,meteohub,2013-05-21 05:42:00,
2013-05-21 01:47:00,59.0,58.1,29.96,WNW,294,0.0,0.0,97,0.00,,,0.00,meteohub,2013-05-21 05:47:00,
2013-05-21 01:52:00,58.8,57.9,29.96,WNW,294,0.0,0.0,97,0.00,,,0.00,meteohub,2013-05-21 05:52:00,
2013-05-21 01:57:00,58.8,57.9,29.96,WNW,294,0.0,0.0,97,0.00,,,0.00,meteohub,2013-05-21 05:57:00,
2013-05-21 02:02:00,58.8,58.3,29.96,WNW,294,0.0,0.0,98,0.00,,,0.00,meteohub,2013-05-21 06:02:00,
2013-05-21 02:07:00,58.8,58.3,29.96,WNW,294,0.0,0.0,98,0.00,,,0.00,meteohub,2013-05-21 06:07:00,
2013-05-21 02:12:00,59.0,58.5,29.95,WNW,294,0.0,0.0,98,0.00,,,0.00,meteohub,2013-05-21 06:12:00,
2013-05-21 02:17:00,59.2,58.6,29.95,WNW,294,0.0,0.0,98,0.00,,,0.00,meteohub,2013-05-21 06:17:00,
2013-05-21 02:22:00,59.0,58.5,29.95,WNW,294,0.0,0.0,98,0.00,,,0.00,meteohub,2013-05-21 06:22:00,
2013-05-21 02:27:00,59.0,58.5,29.94,WNW,294,0.0,0.0,98,0.00,,,0.00,meteohub,2013-05-21 06:27:00,
2013-05-21 02:32:00,58.8,58.3,29.94,WNW,294,0.0,0.0,98,0.00,,,0.00,meteohub,2013-05-21 06:32:00,
2013-05-21 02:37:00,59.0,58.5,29.94,WNW,294,0.0,0.0,98,0.00,,,0.00,meteohub,2013-05-21 06:37:00,
2013-05-21 02:42:00,59.2,58.6,29.94,WNW,294,0.0,0.0,98,0.00,,,0.00,meteohub,2013-05-21 06:42:00,
2013-05-21 02:47:00,59.0,58.5,29.94,WNW,294,0.0,0.0,98,0.00,,,0.00,meteohub,2013-05-21 06:47:00,
2013-05-21 02:52:00,59.0,58.5,29.94,WNW,294,0.0,0.0,98,0.00,,,0.00,meteohub,2013-05-21 06:52:00,
2013-05-21 02:57:00,59.0,58.5,29.94,WNW,294,0.0,0.0,98,0.00,,,0.00,meteohub,2013-05-21 06:57:00,
2013-05-21 03:02:00,59.0,58.5,29.94,WNW,294,0.0,0.0,98,0.00,,,0.00,meteohub,2013-05-21 07:02:00,
2013-05-21 03:07:00,58.8,58.3,29.93,WNW,294,0.0,0.0,98,0.00,,,0.00,meteohub,2013-05-21 07:07:00,
2013-05-21 03:12:00,58.8,58.3,29.93,WNW,294,0.0,0.0,98,0.00,,,0.00,meteohub,2013-05-21 07:12:00,
2013-05-21 03:17:00,58.6,58.1,29.93,WNW,294,0.0,0.0,98,0.00,,,0.00,meteohub,2013-05-21 07:17:00,
2013-05-21 03:22:00,58.6,58.1,29.93,WNW,294,0.0,0.0,98,0.00,,,0.00,meteohub,2013-05-21 07:22:00,
2013-05-21 03:27:00,58.5,57.9,29.94,WNW,294,0.0,0.0,98,0.00,,,0.00,meteohub,2013-05-21 07:27:00,
2013-05-21 03:32:00,58.5,57.9,29.94,WNW,294,0.0,0.0,98,0.00,,,0.00,meteohub,2013-05-21 07:32:00,
2013-05-21 03:38:00,58.5,57.9,29.94,WNW,294,0.0,0.0,98,0.00,,,0.00,meteohub,2013-05-21 07:38:00,
2013-05-21 03:43:00,58.5,57.9,29.94,WNW,294,0.0,0.0,98,0.00,,,0.00,meteohub,2013-05-21 07:43:00,
2013-05-21 03:48:00,58.5,57.9,29.94,WNW,294,0.0,0.0,98,0.00,,,0.00,meteohub,2013-05-21 07:48:00,
2013-05-21 03:53:00,58.5,57.9,29.94,WNW,294,0.0,0.0,98,0.00,,,0.00,meteohub,2013-05-21 07:53:00,
2013-05-21 03:58:00,58.5,57.9,29.94,WNW,294,0.0,0.0,98,0.00,,,0.00,meteohub,2013-05-21 07:58:00,
2013-05-21 04:03:00,58.5,57.9,29.94,WNW,294,0.0,0.0,98,0.00,,,0.00,meteohub,2013-05-21 08:03:00,
2013-05-21 04:08:00,58.6,58.3,29.94,WNW,294,0.0,0.0,99,0.00,,,0.00,meteohub,2013-05-21 08:08:00,
2013-05-21 04:14:00,58.6,58.3,29.94,WNW,294,0.0,0.0,99,0.00,,,0.00,meteohub,2013-05-21 08:14:00,
2013-05-21 04:19:00,58.6,58.3,29.94,WNW,294,0.0,0.0,99,0.00,,,0.00,meteohub,2013-05-21 08:19:00,
2013-05-21 04:24:00,58.6,58.3,29.94,WNW,294,0.0,0.0,99,0.00,,,0.00,meteohub,2013-05-21 08:24:00,
2013-05-21 04:29:00,58.6,58.3,29.94,WNW,294,0.0,0.0,99,0.00,,,0.00,meteohub,2013-05-21 08:29:00,
2013-05-21 04:34:00,58.6,58.3,29.94,WNW,294,0.0,0.0,99,0.00,,,0.00,meteohub,2013-05-21 08:34:00,
2013-05-21 04:39:00,58.6,58.3,29.94,WNW,294,0.0,0.0,99,0.00,,,0.00,meteohub,2013-05-21 08:39:00,
2013-05-21 04:44:00,58.6,58.3,29.94,WNW,294,0.0,0.0,99,0.00,,,0.00,meteohub,2013-05-21 08:44:00,
2013-05-21 04:50:00,58.6,58.3,29.94,WNW,294,0.0,0.0,99,0.00,,,0.00,meteohub,2013-05-21 08:50:00,
2013-05-21 04:55:00,58.6,58.3,29.94,WNW,294,0.0,0.0,99,0.00,,,0.00,meteohub,2013-05-21 08:55:00,
2013-05-21 05:00:00,58.6,58.3,29.95,WNW,294,0.0,0.0,99,0.00,,,0.00,meteohub,2013-05-21 09:00:00,
2013-05-21 05:05:00,58.8,58.5,29.95,WNW,294,0.0,0.0,99,0.00,,,0.00,meteohub,2013-05-21 09:05:00,
2013-05-21 05:10:00,58.8,58.5,29.95,WNW,294,0.0,0.0,99,0.00,,,0.00,meteohub,2013-05-21 09:10:00,
2013-05-21 05:15:00,58.8,58.5,29.96,WNW,294,0.0,0.0,99,0.00,,,0.00,meteohub,2013-05-21 09:15:00,
2013-05-21 05:21:00,59.0,58.6,29.95,WNW,294,0.0,0.0,99,0.00,,,0.00,meteohub,2013-05-21 09:21:00,
2013-05-21 05:26:00,59.0,58.6,29.95,WNW,294,0.0,0.0,99,0.00,,,0.00,meteohub,2013-05-21 09:26:00,
2013-05-21 05:31:00,59.0,58.6,29.96,WNW,294,0.0,0.0,99,0.00,,,0.00,meteohub,2013-05-21 09:31:00,
2013-05-21 05:36:00,59.0,58.6,29.96,WNW,294,0.0,0.0,99,0.00,,,0.00,meteohub,2013-05-21 09:36:00,
2013-05-21 05:41:00,59.0,58.6,29.96,WNW,294,0.0,0.0,99,0.00,,,0.00,meteohub,2013-05-21 09:41:00,
2013-05-21 05:46:00,59.0,58.6,29.96,WNW,294,0.0,0.0,99,0.00,,,0.00,meteohub,2013-05-21 09:46:00,
2013-05-21 05:51:00,59.0,58.6,29.96,WNW,294,0.0,0.0,99,0.00,,,0.00,meteohub,2013-05-21 09:51:00,
2013-05-21 05:56:00,59.0,58.6,29.96,WNW,294,0.0,0.0,99,0.00,,,0.00,meteohub,2013-05-21 09:56:00,
2013-05-21 06:02:00,59.0,58.6,29.96,WNW,294,0.0,0.0,99,0.00,,,0.00,meteohub,2013-05-21 10:02:00,
2013-05-21 06:07:00,59.2,58.8,29.96,WNW,294,0.0,0.0,99,0.00,,,0.00,meteohub,2013-05-21 10:07:00,
2013-05-21 06:12:00,59.2,58.8,29.95,WNW,294,0.0,0.0,99,0.00,,,0.00,meteohub,2013-05-21 10:12:00,
2013-05-21 06:17:00,59.2,58.8,29.95,WNW,294,0.0,0.0,99,0.00,,,0.00,meteohub,2013-05-21 10:17:00,
2013-05-21 06:22:00,59.2,58.8,29.96,WNW,294,0.0,0.0,99,0.00,,,0.00,meteohub,2013-05-21 10:22:00,
2013-05-21 06:27:00,59.2,58.8,29.95,WNW,294,0.0,0.0,99,0.00,,,0.00,meteohub,2013-05-21 10:27:00,
2013-05-21 06:32:00,59.4,59.0,29.95,WNW,294,0.0,0.0,99,0.00,,,0.00,meteohub,2013-05-21 10:32:00,
2013-05-21 06:37:00,59.4,59.0,29.96,WNW,294,0.0,0.0,99,0.00,,,0.00,meteohub,2013-05-21 10:37:00,
2013-05-21 06:42:00,59.4,59.0,29.96,WNW,294,0.0,0.0,99,0.00,,,0.00,meteohub,2013-05-21 10:42:00,
2013-05-21 06:47:00,59.5,59.2,29.96,WNW,294,0.0,0.0,99,0.00,,,0.00,meteohub,2013-05-21 10:47:00,
2013-05-21 06:52:00,59.7,59.4,29.96,WNW,294,0.0,0.0,99,0.00,,,0.00,meteohub,2013-05-21 10:52:00,
2013-05-21 06:57:00,59.9,59.5,29.96,WNW,294,0.0,0.0,99,0.00,,,0.00,meteohub,2013-05-21 10:57:00,
2013-05-21 07:02:00,59.9,59.5,29.96,WNW,294,0.0,0.0,99,0.00,,,0.00,meteohub,2013-05-21 11:02:00,
2013-05-21 07:07:00,60.1,59.7,29.95,WNW,294,0.0,0.0,99,0.00,,,0.00,meteohub,2013-05-21 11:07:00,
2013-05-21 07:12:00,60.3,59.9,29.95,WNW,294,0.0,0.0,99,0.00,,,0.00,meteohub,2013-05-21 11:12:00,
2013-05-21 07:17:00,60.4,60.1,29.95,WNW,294,0.0,0.0,99,0.00,,,0.00,meteohub,2013-05-21 11:17:00,
2013-05-21 07:22:00,60.4,60.1,29.95,WNW,294,0.0,0.0,99,0.00,,,0.00,meteohub,2013-05-21 11:22:00,
2013-05-21 07:27:00,60.6,60.3,29.94,WNW,294,0.0,0.0,99,0.00,,,0.00,meteohub,2013-05-21 11:27:00,
2013-05-21 07:32:00,61.0,60.6,29.94,WNW,294,0.0,0.0,99,0.00,,,0.00,meteohub,2013-05-21 11:32:00,
2013-05-21 07:37:00,61.2,60.8,29.95,WNW,294,0.0,0.0,99,0.00,,,0.00,meteohub,2013-05-21 11:37:00,
2013-05-21 07:42:00,61.3,61.0,29.95,WNW,294,0.0,0.0,99,0.00,,,0.00,meteohub,2013-05-21 11:42:00,
2013-05-21 07:47:00,61.5,61.2,29.95,WNW,294,0.0,0.0,99,0.00,,,0.00,meteohub,2013-05-21 11:47:00,
2013-05-21 07:52:00,62.1,61.7,29.95,WNW,294,0.0,0.0,99,0.00,,,0.00,meteohub,2013-05-21 11:52:00,
2013-05-21 07:57:00,62.2,61.9,29.96,WNW,294,0.0,0.0,99,0.00,,,0.00,meteohub,2013-05-21 11:57:00,
2013-05-21 08:02:00,62.4,62.1,29.96,WNW,294,0.0,0.0,99,0.00,,,0.00,meteohub,2013-05-21 12:02:00,
2013-05-21 08:07:00,62.6,62.2,29.96,WNW,294,0.0,0.0,99,0.00,,,0.00,meteohub,2013-05-21 12:07:00,
2013-05-21 08:12:00,62.8,62.4,29.96,WNW,294,0.0,0.0,99,0.00,,,0.00,meteohub,2013-05-21 12:12:00,
2013-05-21 08:17:00,62.8,62.4,29.96,WNW,294,0.0,0.0,99,0.00,,,0.00,meteohub,2013-05-21 12:17:00,
2013-05-21 08:22:00,63.0,62.6,29.96,WNW,294,0.0,0.0,99,0.00,,,0.00,meteohub,2013-05-21 12:22:00,
2013-05-21 08:27:00,63.0,62.6,29.96,WNW,294,0.0,0.0,99,0.00,,,0.00,meteohub,2013-05-21 12:27:00,
2013-05-21 08:32:00,63.5,63.1,29.96,WNW,294,0.0,0.0,99,0.00,,,0.00,meteohub,2013-05-21 12:32:00,
2013-05-21 08:37:00,63.9,63.5,29.96,WNW,294,0.0,0.0,99,0.00,,,0.00,meteohub,2013-05-21 12:37:00,
2013-05-21 08:42:00,64.6,64.6,29.95,WNW,294,0.0,0.0,100,0.00,,,0.00,meteohub,2013-05-21 12:42:00,
2013-05-21 08:47:00,65.1,65.1,29.96,WNW,294,0.0,0.0,100,0.00,,,0.00,meteohub,2013-05-21 12:47:00,
2013-05-21 08:52:00,65.5,65.1,29.95,WNW,294,0.0,0.0,99,0.00,,,0.00,meteohub,2013-05-21 12:52:00,
2013-05-21 08:57:00,65.7,65.7,29.95,WNW,294,0.0,0.0,100,0.00,,,0.00,meteohub,2013-05-21 12:57:00,
2013-05-21 09:03:00,66.4,66.4,29.96,WNW,294,0.0,0.0,100,0.00,,,0.00,meteohub,2013-05-21 13:03:00,
2013-05-21 09:08:00,66.4,66.4,29.96,WNW,294,0.0,0.0,100,0.00,,,0.00,meteohub,2013-05-21 13:08:00,
2013-05-21 09:13:00,66.6,66.2,29.96,WNW,294,0.0,0.0,99,0.00,,,0.00,meteohub,2013-05-21 13:13:00,
2013-05-21 09:18:00,66.7,66.4,29.96,WNW,294,0.0,0.0,99,0.00,,,0.00,meteohub,2013-05-21 13:18:00,
2013-05-21 09:23:00,67.6,67.6,29.96,WNW,294,0.0,0.0,100,0.00,,,0.00,meteohub,2013-05-21 13:23:00,
2013-05-21 09:28:00,68.5,68.2,29.96,WNW,294,0.0,0.0,99,0.00,,,0.00,meteohub,2013-05-21 13:28:00,
2013-05-21 09:33:00,68.9,68.5,29.96,WNW,294,0.0,0.0,99,0.00,,,0.00,meteohub,2013-05-21 13:33:00,
2013-05-21 09:38:00,68.5,67.1,29.96,WNW,294,0.0,0.0,95,0.00,,,0.00,meteohub,2013-05-21 13:38:00,
2013-05-21 09:44:00,69.3,67.8,29.96,WNW,294,0.0,0.0,95,0.00,,,0.00,meteohub,2013-05-21 13:44:00,
2013-05-21 09:49:00,70.0,68.2,29.95,WNW,294,0.0,0.0,94,0.00,,,0.00,meteohub,2013-05-21 13:49:00,
2013-05-21 09:54:00,70.7,68.0,29.95,WNW,294,0.0,0.0,91,0.00,,,0.00,meteohub,2013-05-21 13:54:00,
2013-05-21 09:59:00,71.2,68.2,29.95,WNW,294,0.0,0.0,90,0.00,,,0.00,meteohub,2013-05-21 13:59:00,
2013-05-21 10:04:00,72.1,69.4,29.95,WNW,294,0.0,0.0,91,0.00,,,0.00,meteohub,2013-05-21 14:04:00,
2013-05-21 10:09:00,73.0,70.0,29.94,WNW,294,0.0,0.0,90,0.00,,,0.00,meteohub,2013-05-21 14:09:00,
2013-05-21 10:14:00,73.8,68.5,29.94,WNW,294,0.0,0.0,84,0.00,,,0.00,meteohub,2013-05-21 14:14:00,
2013-05-21 10:19:00,74.1,70.3,29.94,WNW,294,0.0,0.0,88,0.00,,,0.00,meteohub,2013-05-21 14:19:00,
2013-05-21 10:25:00,75.0,70.2,29.94,WNW,294,0.0,0.0,85,0.00,,,0.00,meteohub,2013-05-21 14:25:00,
2013-05-21 10:30:00,75.9,70.0,29.94,WNW,294,0.0,0.0,82,0.00,,,0.00,meteohub,2013-05-21 14:30:00,
2013-05-21 10:35:00,76.6,70.0,29.93,WNW,294,0.0,0.0,80,0.00,,,0.00,meteohub,2013-05-21 14:35:00,
2013-05-21 10:40:00,77.5,71.6,29.93,WNW,294,0.0,0.0,82,0.00,,,0.00,meteohub,2013-05-21 14:40:00,
2013-05-21 10:45:00,78.3,70.5,29.93,WNW,294,0.0,0.0,77,0.00,,,0.00,meteohub,2013-05-21 14:45:00,
2013-05-21 10:51:00,78.4,71.1,29.93,WNW,294,0.0,0.0,78,0.00,,,0.00,meteohub,2013-05-21 14:51:00,
2013-05-21 10:56:00,78.3,71.2,29.93,WNW,294,0.0,0.0,79,0.00,,,0.00,meteohub,2013-05-21 14:56:00,
2013-05-21 11:01:00,78.6,72.0,29.93,WNW,294,0.0,0.0,80,0.00,,,0.00,meteohub,2013-05-21 15:01:00,
2013-05-21 11:06:00,79.0,71.6,29.93,WNW,294,0.0,0.0,78,0.00,,,0.00,meteohub,2013-05-21 15:06:00,
2013-05-21 11:11:00,78.1,69.1,29.93,WNW,294,0.0,0.0,74,0.00,,,0.00,meteohub,2013-05-21 15:11:00,
2013-05-21 11:16:00,77.7,70.0,29.92,WNW,294,0.0,0.0,77,0.00,,,0.00,meteohub,2013-05-21 15:16:00,
2013-05-21 11:21:00,77.7,71.1,29.92,WNW,294,0.0,0.0,80,0.00,,,0.00,meteohub,2013-05-21 15:21:00,
2013-05-21 11:27:00,78.3,71.2,29.92,WNW,294,0.0,0.0,79,0.00,,,0.00,meteohub,2013-05-21 15:27:00,
2013-05-21 11:32:00,79.2,72.1,29.92,WNW,294,0.0,0.0,79,0.00,,,0.00,meteohub,2013-05-21 15:32:00,
2013-05-21 11:37:00,79.5,70.5,29.92,WNW,294,0.0,0.0,74,0.00,,,0.00,meteohub,2013-05-21 15:37:00,
2013-05-21 11:42:00,79.5,70.5,29.92,WNW,294,0.0,0.0,74,0.00,,,0.00,meteohub,2013-05-21 15:42:00,
2013-05-21 11:47:00,79.0,70.3,29.92,WNW,294,0.0,0.0,75,0.00,,,0.00,meteohub,2013-05-21 15:47:00,
2013-05-21 11:52:00,78.6,70.0,29.93,WNW,294,0.0,0.0,75,0.00,,,0.00,meteohub,2013-05-21 15:52:00,
2013-05-21 11:57:00,79.0,71.1,29.92,WNW,294,0.0,0.0,77,0.00,,,0.00,meteohub,2013-05-21 15:57:00,
2013-05-21 12:02:00,79.5,72.1,29.92,WNW,294,0.0,0.0,78,0.00,,,0.00,meteohub,2013-05-21 16:02:00,
2013-05-21 12:07:00,79.9,70.9,29.92,WNW,294,0.0,0.0,74,0.00,,,0.00,meteohub,2013-05-21 16:07:00,
2013-05-21 12:12:00,79.3,70.0,29.91,WNW,294,0.0,0.0,73,0.00,,,0.00,meteohub,2013-05-21 16:12:00,
2013-05-21 12:17:00,79.5,70.5,29.90,WNW,294,0.0,0.0,74,0.00,,,0.00,meteohub,2013-05-21 16:17:00,
2013-05-21 12:22:00,80.2,70.9,29.90,WNW,294,0.0,0.0,73,0.00,,,0.00,meteohub,2013-05-21 16:22:00,
2013-05-21 12:27:00,80.8,70.9,29.90,WNW,294,0.0,0.0,72,0.00,,,0.00,meteohub,2013-05-21 16:27:00,
2013-05-21 12:32:00,81.1,70.9,29.90,WNW,294,0.0,0.0,71,0.00,,,0.00,meteohub,2013-05-21 16:32:00,
2013-05-21 12:37:00,81.1,71.2,29.90,WNW,294,0.0,0.0,72,0.00,,,0.00,meteohub,2013-05-21 16:37:00,
2013-05-21 12:42:00,81.1,70.3,29.90,WNW,294,0.0,0.0,70,0.00,,,0.00,meteohub,2013-05-21 16:42:00,
2013-05-21 12:47:00,81.0,70.2,29.90,WNW,294,0.0,0.0,70,0.00,,,0.00,meteohub,2013-05-21 16:47:00,
2013-05-21 12:53:00,80.8,70.9,29.90,WNW,294,0.0,0.0,72,0.00,,,0.00,meteohub,2013-05-21 16:53:00,
2013-05-21 12:58:00,80.8,71.2,29.90,WNW,294,0.0,0.0,73,0.00,,,0.00,meteohub,2013-05-21 16:58:00,
2013-05-21 13:03:00,81.1,70.3,29.90,WNW,294,0.0,0.0,70,0.00,,,0.00,meteohub,2013-05-21 17:03:00,
2013-05-21 13:08:00,81.5,70.3,29.90,WNW,294,0.0,0.0,69,0.00,,,0.00,meteohub,2013-05-21 17:08:00,
2013-05-21 13:13:00,81.3,69.8,29.90,WNW,294,0.0,0.0,68,0.00,,,0.00,meteohub,2013-05-21 17:13:00,
2013-05-21 13:18:00,81.3,69.8,29.89,WNW,294,0.0,0.0,68,0.00,,,0.00,meteohub,2013-05-21 17:18:00,
2013-05-21 13:24:00,81.7,71.4,29.90,WNW,294,0.0,0.0,71,0.00,,,0.00,meteohub,2013-05-21 17:24:00,
2013-05-21 13:29:00,81.9,72.0,29.89,WNW,294,0.0,0.0,72,0.00,,,0.00,meteohub,2013-05-21 17:29:00,
2013-05-21 13:34:00,82.0,72.9,29.89,WNW,294,0.0,0.0,74,0.00,,,0.00,meteohub,2013-05-21 17:34:00,
2013-05-21 13:39:00,82.2,70.2,29.89,WNW,294,0.0,0.0,67,0.00,,,0.00,meteohub,2013-05-21 17:39:00,
2013-05-21 13:44:00,82.6,72.1,29.89,WNW,294,0.0,0.0,71,0.00,,,0.00,meteohub,2013-05-21 17:44:00,
2013-05-21 13:49:00,82.9,73.8,29.89,WNW,294,0.0,0.0,74,0.00,,,0.00,meteohub,2013-05-21 17:49:00,
2013-05-21 13:54:00,83.7,73.2,29.89,WNW,294,0.0,0.0,71,0.00,,,0.00,meteohub,2013-05-21 17:54:00,
2013-05-21 14:00:00,83.8,71.2,29.89,WNW,294,0.0,0.0,66,0.00,,,0.00,meteohub,2013-05-21 18:00:00,
2013-05-21 14:05:00,84.2,74.1,29.88,WNW,294,0.0,0.0,72,0.00,,,0.00,meteohub,2013-05-21 18:05:00,
2013-05-21 14:10:00,84.4,73.0,29.88,WNW,294,0.0,0.0,69,0.00,,,0.00,meteohub,2013-05-21 18:10:00,
2013-05-21 14:15:00,84.0,72.7,29.88,WNW,294,0.0,0.0,69,0.00,,,0.00,meteohub,2013-05-21 18:15:00,
2013-05-21 14:20:00,83.7,71.1,29.88,WNW,294,0.0,0.0,66,0.00,,,0.00,meteohub,2013-05-21 18:20:00,
2013-05-21 14:25:00,83.8,72.1,29.88,WNW,294,0.0,0.0,68,0.00,,,0.00,meteohub,2013-05-21 18:25:00,
2013-05-21 14:30:00,84.4,72.7,29.88,WNW,294,0.0,0.0,68,0.00,,,0.00,meteohub,2013-05-21 18:30:00,
2013-05-21 14:35:00,84.9,72.3,29.88,WNW,294,0.0,0.0,66,0.00,,,0.00,meteohub,2013-05-21 18:35:00,
2013-05-21 14:41:00,84.9,72.7,29.87,WNW,294,0.0,0.0,67,0.00,,,0.00,meteohub,2013-05-21 18:41:00,
2013-05-21 14:46:00,84.9,73.6,29.87,WNW,294,0.0,0.0,69,0.00,,,0.00,meteohub,2013-05-21 18:46:00,
2013-05-21 14:51:00,84.9,72.7,29.87,WNW,294,0.0,0.0,67,0.00,,,0.00,meteohub,2013-05-21 18:51:00,
2013-05-21 14:56:00,84.9,72.7,29.87,WNW,294,0.0,0.0,67,0.00,,,0.00,meteohub,2013-05-21 18:56:00,
2013-05-21 15:01:00,84.9,71.4,29.87,WNW,294,0.0,0.0,64,0.00,,,0.00,meteohub,2013-05-21 19:01:00,
2013-05-21 15:07:00,84.7,71.6,29.87,WNW,294,0.0,0.0,65,0.00,,,0.00,meteohub,2013-05-21 19:07:00,
2013-05-21 15:12:00,84.6,71.1,29.87,WNW,294,0.0,0.0,64,0.00,,,0.00,meteohub,2013-05-21 19:12:00,
2013-05-21 15:17:00,84.4,71.2,29.86,WNW,294,0.0,0.0,65,0.00,,,0.00,meteohub,2013-05-21 19:17:00,
2013-05-21 15:22:00,84.2,72.0,29.86,WNW,294,0.0,0.0,67,0.00,,,0.00,meteohub,2013-05-21 19:22:00,
2013-05-21 15:27:00,84.2,71.6,29.86,WNW,294,0.0,0.0,66,0.00,,,0.00,meteohub,2013-05-21 19:27:00,
2013-05-21 15:32:00,83.8,71.2,29.86,WNW,294,0.0,0.0,66,0.00,,,0.00,meteohub,2013-05-21 19:32:00,
2013-05-21 15:37:00,83.7,70.7,29.86,WNW,294,0.0,0.0,65,0.00,,,0.00,meteohub,2013-05-21 19:37:00,
2013-05-21 15:42:00,83.8,73.0,29.86,WNW,294,0.0,0.0,70,0.00,,,0.00,meteohub,2013-05-21 19:42:00,
2013-05-21 15:47:00,84.0,72.3,29.86,WNW,294,0.0,0.0,68,0.00,,,0.00,meteohub,2013-05-21 19:47:00,
2013-05-21 15:53:00,84.4,70.9,29.86,WNW,294,0.0,0.0,64,0.00,,,0.00,meteohub,2013-05-21 19:53:00,
2013-05-21 15:58:00,84.2,72.0,29.85,WNW,294,0.0,0.0,67,0.00,,,0.00,meteohub,2013-05-21 19:58:00,
2013-05-21 16:03:00,83.8,72.1,29.85,WNW,294,0.0,0.0,68,0.00,,,0.00,meteohub,2013-05-21 20:03:00,
2013-05-21 16:08:00,84.2,72.5,29.85,WNW,294,0.0,0.0,68,0.00,,,0.00,meteohub,2013-05-21 20:08:00,
2013-05-21 16:13:00,83.8,70.9,29.85,WNW,294,0.0,0.0,65,0.00,,,0.00,meteohub,2013-05-21 20:13:00,
2013-05-21 16:18:00,82.8,70.2,29.85,WNW,294,0.0,0.0,66,0.00,,,0.00,meteohub,2013-05-21 20:18:00,
2013-05-21 16:24:00,82.0,70.9,29.85,WNW,294,0.0,0.0,69,0.00,,,0.00,meteohub,2013-05-21 20:24:00,
2013-05-21 16:29:00,81.9,70.3,29.85,WNW,294,0.0,0.0,68,0.00,,,0.00,meteohub,2013-05-21 20:29:00,
2013-05-21 16:34:00,81.9,71.6,29.86,WNW,294,0.0,0.0,71,0.00,,,0.00,meteohub,2013-05-21 20:34:00,
2013-05-21 16:39:00,81.9,70.3,29.86,WNW,294,0.0,0.0,68,0.00,,,0.00,meteohub,2013-05-21 20:39:00,
2013-05-21 16:44:00,81.7,70.9,29.85,WNW,294,0.0,0.0,70,0.00,,,0.00,meteohub,2013-05-21 20:44:00,
2013-05-21 16:49:00,81.1,70.9,29.85,WNW,294,0.0,0.0,71,0.00,,,0.00,meteohub,2013-05-21 20:49:00,
2013-05-21 16:55:00,81.1,70.3,29.85,WNW,294,0.0,0.0,70,0.00,,,0.00,meteohub,2013-05-21 20:55:00,
2013-05-21 17:00:00,80.8,70.2,29.86,WNW,294,0.0,0.0,70,0.00,,,0.00,meteohub,2013-05-21 21:00:00,
2013-05-21 17:05:00,80.4,69.8,29.85,WNW,294,0.0,0.0,70,0.00,,,0.00,meteohub,2013-05-21 21:05:00,
2013-05-21 17:10:00,80.1,69.4,29.85,WNW,294,0.0,0.0,70,0.00,,,0.00,meteohub,2013-05-21 21:10:00,
2013-05-21 17:15:00,80.1,69.8,29.85,WNW,294,0.0,0.0,71,0.00,,,0.00,meteohub,2013-05-21 21:15:00,
2013-05-21 17:20:00,80.1,69.8,29.84,WNW,294,0.0,0.0,71,0.00,,,0.00,meteohub,2013-05-21 21:20:00,
2013-05-21 17:26:00,80.1,70.2,29.84,WNW,294,0.0,0.0,72,0.00,,,0.00,meteohub,2013-05-21 21:26:00,
2013-05-21 17:31:00,80.2,70.3,29.84,WNW,294,0.0,0.0,72,0.00,,,0.00,meteohub,2013-05-21 21:31:00,
2013-05-21 17:36:00,80.1,69.4,29.84,WNW,294,0.0,0.0,70,0.00,,,0.00,meteohub,2013-05-21 21:36:00,
2013-05-21 17:41:00,79.9,70.0,29.84,WNW,294,0.0,0.0,72,0.00,,,0.00,meteohub,2013-05-21 21:41:00,
2013-05-21 17:46:00,79.7,69.4,29.84,WNW,294,0.0,0.0,71,0.00,,,0.00,meteohub,2013-05-21 21:46:00,
2013-05-21 17:51:00,79.5,69.3,29.85,WNW,294,0.0,0.0,71,0.00,,,0.00,meteohub,2013-05-21 21:51:00,
2013-05-21 17:56:00,79.5,69.3,29.85,WNW,294,0.0,0.0,71,0.00,,,0.00,meteohub,2013-05-21 21:56:00,
2013-05-21 18:02:00,79.3,69.4,29.86,WNW,294,0.0,0.0,72,0.00,,,0.00,meteohub,2013-05-21 22:02:00,
2013-05-21 18:07:00,78.8,69.1,29.86,WNW,294,0.0,0.0,72,0.00,,,0.00,meteohub,2013-05-21 22:07:00,
2013-05-21 18:12:00,78.4,69.1,29.86,WNW,294,0.0,0.0,73,0.00,,,0.00,meteohub,2013-05-21 22:12:00,
2013-05-21 18:17:00,78.1,69.1,29.86,WNW,294,0.0,0.0,74,0.00,,,0.00,meteohub,2013-05-21 22:17:00,
2013-05-21 18:22:00,77.9,68.5,29.85,WNW,294,0.0,0.0,73,0.00,,,0.00,meteohub,2013-05-21 22:22:00,
2013-05-21 18:27:00,77.7,68.7,29.86,WNW,294,0.0,0.0,74,0.00,,,0.00,meteohub,2013-05-21 22:27:00,
2013-05-21 18:32:00,77.5,68.2,29.86,WNW,294,0.0,0.0,73,0.00,,,0.00,meteohub,2013-05-21 22:32:00,
2013-05-21 18:37:00,77.2,67.8,29.86,WNW,294,0.0,0.0,73,0.00,,,0.00,meteohub,2013-05-21 22:37:00,
2013-05-21 18:42:00,76.6,67.6,29.86,WNW,294,0.0,0.0,74,0.00,,,0.00,meteohub,2013-05-21 22:42:00,
2013-05-21 18:47:00,76.3,66.9,29.87,WNW,294,0.0,0.0,73,0.00,,,0.00,meteohub,2013-05-21 22:47:00,
2013-05-21 18:52:00,75.7,67.3,29.87,WNW,294,0.0,0.0,75,0.00,,,0.00,meteohub,2013-05-21 22:52:00,
2013-05-21 18:57:00,75.6,67.8,29.87,WNW,294,0.0,0.0,77,0.00,,,0.00,meteohub,2013-05-21 22:57:00,
2013-05-21 19:02:00,75.0,66.9,29.87,WNW,294,0.0,0.0,76,0.00,,,0.00,meteohub,2013-05-21 23:02:00,
2013-05-21 19:07:00,74.8,67.1,29.87,WNW,294,0.0,0.0,77,0.00,,,0.00,meteohub,2013-05-21 23:07:00,
2013-05-21 19:12:00,74.5,66.7,29.88,WNW,294,0.0,0.0,77,0.00,,,0.00,meteohub,2013-05-21 23:12:00,
2013-05-21 19:17:00,74.3,67.3,29.88,WNW,294,0.0,0.0,79,0.00,,,0.00,meteohub,2013-05-21 23:17:00,
2013-05-21 19:22:00,74.1,67.1,29.88,WNW,294,0.0,0.0,79,0.00,,,0.00,meteohub,2013-05-21 23:22:00,
2013-05-21 19:27:00,73.8,67.3,29.88,WNW,294,0.0,0.0,80,0.00,,,0.00,meteohub,2013-05-21 23:27:00,
2013-05-21 19:32:00,73.6,67.5,29.88,WNW,294,0.0,0.0,81,0.00,,,0.00,meteohub,2013-05-21 23:32:00,
2013-05-21 19:37:00,73.2,67.1,29.88,WNW,294,0.0,0.0,81,0.00,,,0.00,meteohub,2013-05-21 23:37:00,
2013-05-21 19:42:00,73.0,66.9,29.88,WNW,294,0.0,0.0,81,0.00,,,0.00,meteohub,2013-05-21 23:42:00,
2013-05-21 19:47:00,72.7,66.9,29.88,WNW,294,0.0,0.0,82,0.00,,,0.00,meteohub,2013-05-21 23:47:00,
2013-05-21 19:52:00,72.1,66.7,29.87,WNW,294,0.0,0.0,83,0.00,,,0.00,meteohub,2013-05-21 23:52:00,
2013-05-21 19:57:00,72.0,66.6,29.87,WNW,294,0.0,0.0,83,0.00,,,0.00,meteohub,2013-05-21 23:57:00,
2013-05-21 20:02:00,71.4,66.0,29.88,WNW,294,0.0,0.0,83,0.00,,,0.00,meteohub,2013-05-22 00:02:00,
2013-05-21 20:07:00,71.2,65.8,29.87,WNW,294,0.0,0.0,83,0.00,,,0.00,meteohub,2013-05-22 00:07:00,
2013-05-21 20:12:00,70.9,65.8,29.88,WNW,294,0.0,0.0,84,0.00,,,0.00,meteohub,2013-05-22 00:12:00,
2013-05-21 20:17:00,70.5,65.5,29.88,WNW,294,0.0,0.0,84,0.00,,,0.00,meteohub,2013-05-22 00:17:00,
2013-05-21 20:22:00,70.0,64.9,29.88,WNW,294,0.0,0.0,84,0.00,,,0.00,meteohub,2013-05-22 00:22:00,
2013-05-21 20:27:00,69.6,64.6,29.88,WNW,294,0.0,0.0,84,0.00,,,0.00,meteohub,2013-05-22 00:27:00,
2013-05-21 20:32:00,69.3,64.6,29.88,WNW,294,0.0,0.0,85,0.00,,,0.00,meteohub,2013-05-22 00:32:00,
2013-05-21 20:37:00,68.9,64.6,29.87,WNW,294,0.0,0.0,86,0.00,,,0.00,meteohub,2013-05-22 00:37:00,
2013-05-21 20:42:00,68.5,64.2,29.87,WNW,294,0.0,0.0,86,0.00,,,0.00,meteohub,2013-05-22 00:42:00,
2013-05-21 20:47:00,68.2,64.2,29.88,WNW,294,0.0,0.0,87,0.00,,,0.00,meteohub,2013-05-22 00:47:00,
2013-05-21 20:52:00,67.8,63.9,29.88,WNW,294,0.0,0.0,87,0.00,,,0.00,meteohub,2013-05-22 00:52:00,
2013-05-21 20:57:00,67.6,64.0,29.88,WNW,294,0.0,0.0,88,0.00,,,0.00,meteohub,2013-05-22 00:57:00,
2013-05-21 21:02:00,67.3,63.9,29.89,WNW,294,0.0,0.0,89,0.00,,,0.00,meteohub,2013-05-22 01:02:00,
2013-05-21 21:07:00,67.1,63.7,29.89,WNW,294,0.0,0.0,89,0.00,,,0.00,meteohub,2013-05-22 01:07:00,
2013-05-21 21:12:00,66.9,63.5,29.89,WNW,294,0.0,0.0,89,0.00,,,0.00,meteohub,2013-05-22 01:12:00,
2013-05-21 21:17:00,66.7,63.7,29.89,WNW,294,0.0,0.0,90,0.00,,,0.00,meteohub,2013-05-22 01:17:00,
2013-05-21 21:22:00,66.6,63.5,29.89,WNW,294,0.0,0.0,90,0.00,,,0.00,meteohub,2013-05-22 01:22:00,
2013-05-21 21:27:00,66.4,63.3,29.89,WNW,294,0.0,0.0,90,0.00,,,0.00,meteohub,2013-05-22 01:27:00,
2013-05-21 21:32:00,66.4,63.7,29.88,WNW,294,0.0,0.0,91,0.00,,,0.00,meteohub,2013-05-22 01:32:00,
2013-05-21 21:37:00,66.2,63.5,29.88,WNW,294,0.0,0.0,91,0.00,,,0.00,meteohub,2013-05-22 01:37:00,
2013-05-21 21:42:00,66.0,63.3,29.88,WNW,294,0.0,0.0,91,0.00,,,0.00,meteohub,2013-05-22 01:42:00,
2013-05-21 21:47:00,65.8,63.1,29.88,WNW,294,0.0,0.0,91,0.00,,,0.00,meteohub,2013-05-22 01:47:00,
2013-05-21 21:52:00,65.8,63.5,29.88,WNW,294,0.0,0.0,92,0.00,,,0.00,meteohub,2013-05-22 01:52:00,
2013-05-21 21:57:00,65.7,63.3,29.88,WNW,294,0.0,0.0,92,0.00,,,0.00,meteohub,2013-05-22 01:57:00,
2013-05-21 22:02:00,65.7,63.3,29.88,WNW,294,0.0,0.0,92,0.00,,,0.00,meteohub,2013-05-22 02:02:00,
2013-05-21 22:07:00,65.5,63.1,29.88,WNW,294,0.0,0.0,92,0.00,,,0.00,meteohub,2013-05-22 02:07:00,
2013-05-21 22:12:00,65.5,63.1,29.88,WNW,294,0.0,0.0,92,0.00,,,0.00,meteohub,2013-05-22 02:12:00,
2013-05-21 22:17:00,65.1,62.8,29.88,WNW,294,0.0,0.0,92,0.00,,,0.00,meteohub,2013-05-22 02:17:00,
2013-05-21 22:22:00,65.1,62.8,29.88,WNW,294,0.0,0.0,92,0.00,,,0.00,meteohub,2013-05-22 02:22:00,
2013-05-21 22:27:00,64.9,62.6,29.88,WNW,294,0.0,0.0,92,0.00,,,0.00,meteohub,2013-05-22 02:27:00,
2013-05-21 22:32:00,64.8,62.6,29.88,WNW,294,0.0,0.0,93,0.00,,,0.00,meteohub,2013-05-22 02:32:00,
2013-05-21 22:37:00,64.6,62.4,29.88,WNW,294,0.0,0.0,93,0.00,,,0.00,meteohub,2013-05-22 02:37:00,
2013-05-21 22:42:00,64.4,62.4,29.87,WNW,294,0.0,0.0,93,0.00,,,0.00,meteohub,2013-05-22 02:42:00,
2013-05-21 22:47:00,64.2,62.2,29.87,WNW,294,0.0,0.0,93,0.00,,,0.00,meteohub,2013-05-22 02:47:00,
2013-05-21 22:52:00,64.0,62.2,29.87,WNW,294,0.0,0.0,94,0.00,,,0.00,meteohub,2013-05-22 02:52:00,
2013-05-21 22:57:00,63.9,62.1,29.87,WNW,294,0.0,0.0,94,0.00,,,0.00,meteohub,2013-05-22 02:57:00,
2013-05-21 23:02:00,63.7,61.9,29.87,WNW,294,0.0,0.0,94,0.00,,,0.00,meteohub,2013-05-22 03:02:00,
2013-05-21 23:07:00,63.3,61.5,29.87,WNW,294,0.0,0.0,94,0.00,,,0.00,meteohub,2013-05-22 03:07:00,
2013-05-21 23:12:00,63.3,61.5,29.88,WNW,294,0.0,0.0,94,0.00,,,0.00,meteohub,2013-05-22 03:12:00,
2013-05-21 23:17:00,63.1,61.7,29.88,WNW,294,0.0,0.0,95,0.00,,,0.00,meteohub,2013-05-22 03:17:00,
2013-05-21 23:22:00,63.1,61.7,29.88,WNW,294,0.0,0.0,95,0.00,,,0.00,meteohub,2013-05-22 03:22:00,
2013-05-21 23:27:00,63.0,61.5,29.88,WNW,294,0.0,0.0,95,0.00,,,0.00,meteohub,2013-05-22 03:27:00,
2013-05-21 23:32:00,63.0,61.5,29.88,WNW,294,0.0,0.0,95,0.00,,,0.00,meteohub,2013-05-22 03:32:00,
2013-05-21 23:37:00,63.0,61.5,29.88,WNW,294,0.0,0.0,95,0.00,,,0.00,meteohub,2013-05-22 03:37:00,
2013-05-21 23:42:00,62.8,61.3,29.88,WNW,294,0.0,0.0,95,0.00,,,0.00,meteohub,2013-05-22 03:42:00,
2013-05-21 23:47:00,62.8,61.3,29.89,WNW,294,0.0,0.0,95,0.00,,,0.00,meteohub,2013-05-22 03:47:00,
2013-05-21 23:52:00,62.8,61.3,29.89,WNW,294,0.0,0.0,95,0.00,,,0.00,meteohub,2013-05-22 03:52:00,
2013-05-21 23:57:00,62.8,61.7,29.89,WNW,294,0.0,0.0,96,0.00,,,0.00,meteohub,2013-05-22 03:57:00,